Weather History for KEAT - August, 2013

Change the Weather History Date:

Saturday, August 3, 2013

  Actual Average Record
Temperature  
Mean Temperature 64 °F 69 °F  
Max Temperature 75 °F 85 °F 107 °F (1961)
Min Temperature 53 °F 53 °F 42 °F (2008)
Degree Days  
Heating Degree Days 1 1  
Month to date heating degree days 10 3  
Since 1 June heating degree days 215 242  
Since 1 July heating degree days 22 55  
Cooling Degree Days 0 5  
Month to date cooling degree days 0 15  
Year to date cooling degree days 177 144  
Since 1 June cooling degree days 173 139  
Growing Degree Days 21 (Base 50)    
Moisture  
Dew Point 53 °F    
Average Humidity 54    
Maximum Humidity 65    
Minimum Humidity 42    
Precipitation  
Precipitation T in 0.01 in 0.76 in (1962)
Month to date precipitation 0.40 0.03  
Year to date precipitation 8.15 9.98  
Snow  
Snow 0.00 in 0.00 in - ()
Month to date snowfall 0.0 0.0  
Since 1 June snowfall 0.0 0.0  
Since 1 July snowfall 0.0 0.0  
Snow Depth 0.00 in    
Sea Level Pressure  
Sea Level Pressure 30.03 in    
Wind  
Wind Speed 8 mph (NNE)    
Max Wind Speed 12 mph    
Max Gust Speed 16 mph    
Visibility 10 miles    
Events      
T = Trace of Precipitation, MM = Missing Value Source: NWS Daily Summary

Daily Weather History Graph

Daily Weather History Graph

Search for Another Location

Airport or City:

Trip Planner

Search our weather history database for the weather conditions in past years. The results will help you decide how hot, cold, wet, or windy it might be!

Date:

Astronomy

Aug. 03, 2013 Rise Set
Actual Time 5:41 AM PDT 8:31 PM PDT
Civil Twilight 5:06 AM PDT 9:06 PM PDT
Nautical Twilight 4:21 AM PDT 9:51 PM PDT
Astronomical Twilight 3:27 AM PDT 10:44 PM PDT
Moon 2:52 AM PDT (8/3) 6:18 PM PDT (8/3)
Length of Visible Light 16h 00m
Length of Day
14h 49m
Waning Crescent, 9% of the Moon is Illuminated
Aug 3
Waning Crescent
Aug 6
New
Aug 14
First Quarter
Aug 20
Full
Aug 28
Last Quarter

Hourly Weather History & Observations

Time (PDT) Temp. Heat Index Dew Point Humidity Pressure Visibility Wind Dir Wind Speed Gust Speed Precip Events Conditions
12:55 AM 64.0 °F - 48.9 °F 58% 30.03 in 10.0 mi NNW 9.2 mph - N/A   Overcast
1:55 AM 64.0 °F - 48.0 °F 56% 30.03 in 10.0 mi NNW 10.4 mph - N/A   Overcast
2:55 AM 64.0 °F - 48.0 °F 56% 30.04 in 10.0 mi NNW 11.5 mph - N/A   Overcast
3:55 AM 63.0 °F - 48.9 °F 60% 30.03 in 10.0 mi NNW 9.2 mph - N/A   Overcast
4:55 AM 63.0 °F - 48.9 °F 60% 30.04 in 10.0 mi WNW 4.6 mph - N/A   Overcast
5:55 AM 62.1 °F - 50.0 °F 65% 30.05 in 10.0 mi West 4.6 mph - N/A   Overcast
6:55 AM 63.0 °F - 50.0 °F 63% 30.07 in 10.0 mi WNW 5.8 mph - N/A   Overcast
7:55 AM 64.0 °F - 50.0 °F 60% 30.08 in 10.0 mi WNW 6.9 mph - N/A   Overcast
8:55 AM 64.9 °F - 50.0 °F 58% 30.09 in 10.0 mi NW 9.2 mph - N/A   Overcast
9:55 AM 66.9 °F - 50.0 °F 54% 30.08 in 10.0 mi West 5.8 mph - N/A   Mostly Cloudy
10:55 AM 70.0 °F - 51.1 °F 51% 30.08 in 10.0 mi West 6.9 mph - N/A   Overcast
11:55 AM 73.0 °F - 53.1 °F 49% 30.07 in 10.0 mi Variable 4.6 mph - N/A   Overcast
12:55 PM 75.9 °F - 54.0 °F 46% 30.05 in 10.0 mi Variable 3.5 mph - N/A   Mostly Cloudy
1:55 PM 78.1 °F - 53.1 °F 42% 30.04 in 10.0 mi Variable 3.5 mph - N/A   Partly Cloudy
2:55 PM 80.1 °F 80.1 °F 55.0 °F 42% 30.02 in 10.0 mi ESE 9.2 mph - N/A   Clear
3:55 PM 79.0 °F - 55.9 °F 45% 30.01 in 10.0 mi ESE 10.4 mph 16.1 mph N/A   Mostly Cloudy
4:55 PM 78.1 °F - 57.0 °F 48% 30.00 in 10.0 mi East 6.9 mph - N/A   Overcast
5:55 PM 78.1 °F - 57.0 °F 48% 29.98 in 10.0 mi East 4.6 mph - N/A   Scattered Clouds
6:55 PM 78.1 °F - 57.0 °F 48% 29.97 in 10.0 mi ESE 4.6 mph - N/A   Clear
7:55 PM 77.0 °F - 54.0 °F 45% 29.97 in 10.0 mi ESE 8.1 mph - N/A   Clear
8:55 PM 73.0 °F - 55.0 °F 53% 29.98 in 10.0 mi East 6.9 mph - N/A   Clear
9:55 PM 70.0 °F - 55.9 °F 61% 29.99 in 10.0 mi East 6.9 mph - N/A   Clear
10:55 PM 71.1 °F - 55.9 °F 59% 30.00 in 10.0 mi East 9.2 mph - N/A   Clear
11:55 PM 70.0 °F - 55.0 °F 59% 30.00 in 10.0 mi SE 5.8 mph - N/A   Clear